PHOTO_FILE_NAME,PHOTO_TIMESTAMP,LATITUDE_WGS84,LONGITUDE_WGS84,ALTITUDE,SURVEY_TYPE,COUNT_ADULT,COUNT_PUP,KELP_PRESENT,LAND_PRESENT,IMAGE_QUALITY,COUNTED_BY,COUNTED_DATE,PROTOCOL_ID,QUALITY_FLAG
SO_C_20180719_A_0021.JPG,2018-07-19 14:55:23,58.39951667,-135.64430278,216,Abundance,0,0,0,1,Good,LFT,2018-09-25,SO-2017.1,0
SO_C_20180719_A_0022.JPG,2018-07-19 14:55:24,58.39936389,-135.64499444,216,Abundance,0,0,0,1,Good,LFT,2018-09-25,SO-2017.1,0
SO_C_20180719_A_0023.JPG,2018-07-19 14:55:25,58.39921667,-135.64569722,216,Abundance,0,0,0,1,Good,LFT,2018-09-25,SO-2017.1,0
SO_C_20180719_A_0024.JPG,2018-07-19 14:55:26,58.39907778,-135.64640556,216,Abundance,0,0,0,1,Good,LFT,2018-09-25,SO-2017.1,0
SO_C_20180719_A_0025.JPG,2018-07-19 14:55:27,58.39894722,-135.64711944,216,Abundance,0,0,0,1,Good,LFT,2018-09-25,SO-2017.1,0
SO_C_20180719_A_0026.JPG,2018-07-19 14:55:28,58.39882778,-135.64783611,215,Abundance,0,0,0,1,Good,LFT,2018-09-25,SO-2017.1,0
SO_C_20180719_A_0027.JPG,2018-07-19 14:55:29,58.39871111,-135.64855556,215,Abundance,0,0,0,1,Good,LFT,2018-09-25,SO-2017.1,0
SO_C_20180719_A_0028.JPG,2018-07-19 15:02:52,58.49840000,-135.91413611,218,Abundance,0,0,0,0,Good,LFT,2018-09-25,SO-2017.1,0
SO_C_20180719_A_0029.JPG,2018-07-19 15:02:53,58.49843056,-135.91495556,219,Abundance,0,0,0,0,Good,LFT,2018-09-25,SO-2017.1,0
SO_C_20180719_A_0030.JPG,2018-07-19 15:02:54,58.49845556,-135.91577500,219,Abundance,0,0,0,0,Good,LFT,2018-09-25,SO-2017.1,0
SO_C_20180719_A_0031.JPG,2018-07-19 15:02:55,58.49847500,-135.91659722,219,Abundance,0,0,0,0,Good,LFT,2018-09-25,SO-2017.1,0
SO_C_20180719_A_0032.JPG,2018-07-19 15:02:56,58.49848889,-135.91741667,218,Abundance,0,0,1,0,Good,LFT,2018-09-25,SO-2017.1,0
SO_C_20180719_A_0033.JPG,2018-07-19 15:02:57,58.49849444,-135.91823889,218,Abundance,0,0,0,0,Good,LFT,2018-09-25,SO-2017.1,0
SO_C_20180719_A_0034.JPG,2018-07-19 15:02:58,58.49849167,-135.91905833,217,Abundance,0,0,0,0,Good,LFT,2018-09-25,SO-2017.1,0
SO_C_20180719_A_0035.JPG,2018-07-19 15:02:59,58.49848611,-135.91987778,216,Abundance,0,0,0,0,Good,LFT,2018-09-25,SO-2017.1,0
SO_C_20180719_A_0036.JPG,2018-07-19 15:03:00,58.49847500,-135.92069722,216,Abundance,0,0,0,0,Good,LFT,2018-09-25,SO-2017.1,0
SO_C_20180719_A_0037.JPG,2018-07-19 15:03:01,58.49846111,-135.92151389,215,Abundance,0,0,0,0,Good,LFT,2018-09-25,SO-2017.1,0
SO_C_20180719_A_0038.JPG,2018-07-19 15:03:02,58.49845278,-135.92232222,214,Abundance,0,0,0,0,Good,LFT,2018-09-25,SO-2017.1,0
SO_C_20180719_A_0039.JPG,2018-07-19 15:03:03,58.49844167,-135.92313056,214,Abundance,0,0,0,0,Good,LFT,2018-09-25,SO-2017.1,0
SO_C_20180719_A_0040.JPG,2018-07-19 15:03:04,58.49843611,-135.92393889,213,Abundance,0,0,0,0,Good,LFT,2018-09-25,SO-2017.1,0
SO_C_20180719_A_0041.JPG,2018-07-19 15:03:05,58.49843333,-135.92474722,213,Abundance,0,0,0,0,Good,LFT,2018-09-25,SO-2017.1,0
SO_C_20180719_A_0042.JPG,2018-07-19 15:03:06,58.49843056,-135.92555278,213,Abundance,0,0,0,0,Good,LFT,2018-09-25,SO-2017.1,0
SO_C_20180719_A_0043.JPG,2018-07-19 15:03:07,58.49842500,-135.92636389,213,Abundance,0,0,1,1,Good,LFT,2018-09-25,SO-2017.1,0
SO_C_20180719_A_0044.JPG,2018-07-19 15:03:08,58.49841944,-135.92717222,213,Abundance,0,0,1,1,Good,LFT,2018-09-25,SO-2017.1,0
SO_C_20180719_A_0045.JPG,2018-07-19 15:03:09,58.49841111,-135.92797778,213,Abundance,0,0,1,1,Good,LFT,2018-09-25,SO-2017.1,0
SO_C_20180719_A_0046.JPG,2018-07-19 15:03:10,58.49840556,-135.92878889,212,Abundance,0,0,0,1,Good,LFT,2018-09-25,SO-2017.1,0
SO_C_20180719_A_0047.JPG,2018-07-19 15:03:11,58.49840556,-135.92959722,212,Abundance,0,0,0,1,Good,LFT,2018-09-25,SO-2017.1,0
SO_C_20180719_A_0048.JPG,2018-07-19 15:03:12,58.49840556,-135.93041111,212,Abundance,0,0,0,1,Good,LFT,2018-09-25,SO-2017.1,0
SO_C_20180719_A_0049.JPG,2018-07-19 15:03:13,58.49840278,-135.93122500,211,Abundance,0,0,0,1,Good,LFT,2018-09-25,SO-2017.1,0
SO_C_20180719_A_0050.JPG,2018-07-19 15:03:14,58.49840278,-135.93203611,211,Abundance,0,0,0,1,Good,LFT,2018-09-25,SO-2017.1,0
SO_C_20180719_A_0051.JPG,2018-07-19 15:03:15,58.49840278,-135.93285000,210,Abundance,0,0,0,1,Good,LFT,2018-09-25,SO-2017.1,0
SO_C_20180719_A_0052.JPG,2018-07-19 15:03:16,58.49840556,-135.93366389,210,Abundance,0,0,0,1,Good,LFT,2018-09-25,SO-2017.1,0
SO_C_20180719_A_0053.JPG,2018-07-19 15:03:17,58.49841111,-135.93447778,210,Abundance,0,0,0,1,Good,LFT,2018-09-25,SO-2017.1,0
SO_C_20180719_A_0054.JPG,2018-07-19 15:03:18,58.49841944,-135.93529167,209,Abundance,0,0,0,1,Good,LFT,2018-09-25,SO-2017.1,0
SO_C_20180719_A_0055.JPG,2018-07-19 15:03:19,58.49842778,-135.93610556,209,Abundance,0,0,0,1,Good,LFT,2018-09-25,SO-2017.1,0
SO_C_20180719_A_0056.JPG,2018-07-19 15:03:20,58.49843333,-135.93691667,209,Abundance,0,0,1,1,Good,LFT,2018-09-25,SO-2017.1,0
SO_C_20180719_A_0057.JPG,2018-07-19 15:03:21,58.49843056,-135.93772500,209,Abundance,0,0,1,1,Good,LFT,2018-09-25,SO-2017.1,0
SO_C_20180719_A_0058.JPG,2018-07-19 15:03:22,58.49843056,-135.93853056,209,Abundance,0,0,1,1,Good,LFT,2018-09-25,SO-2017.1,0
SO_C_20180719_A_0059.JPG,2018-07-19 15:03:23,58.49842500,-135.93933611,210,Abundance,0,0,1,1,Good,LFT,2018-09-25,SO-2017.1,0
SO_C_20180719_A_0060.JPG,2018-07-19 15:03:24,58.49841944,-135.94013889,210,Abundance,0,0,1,1,Good,LFT,2018-09-25,SO-2017.1,0
SO_C_20180719_A_0061.JPG,2018-07-19 15:03:25,58.49841389,-135.94093889,210,Abundance,0,0,1,0,Good,LFT,2018-09-25,SO-2017.1,0
SO_C_20180719_A_0062.JPG,2018-07-19 15:03:26,58.49841111,-135.94174167,210,Abundance,0,0,1,0,Good,LFT,2018-09-25,SO-2017.1,0
SO_C_20180719_A_0063.JPG,2018-07-19 15:03:27,58.49840556,-135.94254444,210,Abundance,0,0,1,0,Good,LFT,2018-09-25,SO-2017.1,0
SO_C_20180719_A_0064.JPG,2018-07-19 15:03:28,58.49840000,-135.94334722,210,Abundance,0,0,1,0,Good,LFT,2018-09-25,SO-2017.1,0
SO_C_20180719_A_0065.JPG,2018-07-19 15:03:29,58.49838611,-135.94415278,210,Abundance,0,0,1,0,Good,LFT,2018-09-25,SO-2017.1,0
SO_C_20180719_A_0066.JPG,2018-07-19 15:03:30,58.49837778,-135.94496111,210,Abundance,0,0,1,0,Good,LFT,2018-09-25,SO-2017.1,0
SO_C_20180719_A_0067.JPG,2018-07-19 15:03:31,58.49836944,-135.94577500,210,Abundance,0,0,1,0,Good,LFT,2018-09-25,SO-2017.1,0
SO_C_20180719_A_0068.JPG,2018-07-19 15:03:32,58.49835556,-135.94658889,209,Abundance,0,0,1,0,Good,LFT,2018-09-25,SO-2017.1,0
SO_C_20180719_A_0069.JPG,2018-07-19 15:03:33,58.49834167,-135.94740556,209,Abundance,0,0,1,0,Good,LFT,2018-09-25,SO-2017.1,0
SO_C_20180719_A_0070.JPG,2018-07-19 15:03:34,58.49832500,-135.94822778,210,Abundance,0,0,0,0,Good,LFT,2018-09-25,SO-2017.1,0
SO_C_20180719_A_0071.JPG,2018-07-19 15:03:35,58.49831944,-135.94904722,210,Abundance,0,0,0,0,Good,LFT,2018-09-25,SO-2017.1,0
SO_C_20180719_A_0072.JPG,2018-07-19 15:03:36,58.49830833,-135.94986667,210,Abundance,0,0,1,0,Good,LFT,2018-09-25,SO-2017.1,0
SO_C_20180719_A_0073.JPG,2018-07-19 15:03:37,58.49830278,-135.95068611,211,Abundance,0,0,0,1,Good,LFT,2018-09-25,SO-2017.1,0
SO_C_20180719_A_0074.JPG,2018-07-19 15:03:38,58.49829444,-135.95150556,211,Abundance,0,0,0,1,Good,LFT,2018-09-25,SO-2017.1,0
SO_C_20180719_A_0075.JPG,2018-07-19 15:03:39,58.49828333,-135.95232778,211,Abundance,0,0,0,1,Good,LFT,2018-09-25,SO-2017.1,0
SO_C_20180719_A_0076.JPG,2018-07-19 15:03:40,58.49827500,-135.95314722,211,Abundance,0,0,1,1,Good,LFT,2018-09-25,SO-2017.1,0
SO_C_20180719_A_0077.JPG,2018-07-19 15:03:41,58.49825833,-135.95396667,211,Abundance,0,0,1,1,Good,LFT,2018-09-25,SO-2017.1,0
SO_C_20180719_A_0078.JPG,2018-07-19 15:03:42,58.49824167,-135.95478889,211,Abundance,0,0,1,1,Good,LFT,2018-09-25,SO-2017.1,0
SO_C_20180719_A_0079.JPG,2018-07-19 15:03:43,58.49823056,-135.95560833,211,Abundance,0,0,1,0,Good,LFT,2018-09-25,SO-2017.1,0
SO_C_20180719_A_0080.JPG,2018-07-19 15:03:44,58.49821667,-135.95642500,211,Abundance,0,0,1,1,Good,LFT,2018-09-25,SO-2017.1,0
SO_C_20180719_A_0081.JPG,2018-07-19 15:03:45,58.49820278,-135.95723889,210,Abundance,0,0,1,0,Good,LFT,2018-09-25,SO-2017.1,0
SO_C_20180719_A_0082.JPG,2018-07-19 15:03:46,58.49818611,-135.95805278,210,Abundance,0,0,1,0,Good,LFT,2018-09-25,SO-2017.1,0
SO_C_20180719_A_0083.JPG,2018-07-19 15:03:47,58.49817778,-135.95886944,210,Abundance,0,0,1,0,Good,LFT,2018-09-25,SO-2017.1,0
SO_C_20180719_A_0084.JPG,2018-07-19 15:03:48,58.49816944,-135.95968333,210,Abundance,0,0,1,0,Good,LFT,2018-09-25,SO-2017.1,0
SO_C_20180719_A_0085.JPG,2018-07-19 15:03:49,58.49815833,-135.96048889,211,Abundance,0,0,1,1,Good,LFT,2018-09-25,SO-2017.1,0
SO_C_20180719_A_0086.JPG,2018-07-19 15:03:50,58.49815278,-135.96129167,211,Abundance,0,0,1,1,Good,LFT,2018-09-25,SO-2017.1,0
SO_C_20180719_A_0087.JPG,2018-07-19 15:03:51,58.49814722,-135.96210000,212,Abundance,0,0,1,1,Good,LFT,2018-09-25,SO-2017.1,0
SO_C_20180719_A_0088.JPG,2018-07-19 15:03:52,58.49814722,-135.96290556,212,Abundance,0,0,1,0,Good,LFT,2018-09-25,SO-2017.1,0
SO_C_20180719_A_0089.JPG,2018-07-19 15:03:53,58.49815000,-135.96371389,213,Abundance,0,0,1,0,Good,LFT,2018-09-25,SO-2017.1,0
SO_C_20180719_A_0090.JPG,2018-07-19 15:03:54,58.49815278,-135.96452500,214,Abundance,0,0,1,1,Good,LFT,2018-09-25,SO-2017.1,0
SO_C_20180719_A_0091.JPG,2018-07-19 15:03:55,58.49815833,-135.96533889,215,Abundance,0,0,1,1,Good,LFT,2018-09-25,SO-2017.1,0
SO_C_20180719_A_0092.JPG,2018-07-19 15:03:56,58.49816389,-135.96615556,215,Abundance,0,0,1,1,Good,LFT,2018-09-25,SO-2017.1,0
SO_C_20180719_A_0093.JPG,2018-07-19 15:03:57,58.49816944,-135.96697500,216,Abundance,0,0,1,1,Good,LFT,2018-09-25,SO-2017.1,0
SO_C_20180719_A_0094.JPG,2018-07-19 15:03:58,58.49817222,-135.96778889,216,Abundance,0,0,0,0,Good,LFT,2018-09-25,SO-2017.1,0
SO_C_20180719_A_0095.JPG,2018-07-19 15:03:59,58.49817222,-135.96860833,217,Abundance,0,0,0,0,Good,LFT,2018-09-25,SO-2017.1,0
SO_C_20180719_A_0096.JPG,2018-07-19 15:04:00,58.49816944,-135.96942500,217,Abundance,0,0,0,0,Good,LFT,2018-09-25,SO-2017.1,0
SO_C_20180719_A_0097.JPG,2018-07-19 15:04:01,58.49816389,-135.97024167,217,Abundance,0,0,0,0,Good,LFT,2018-09-25,SO-2017.1,0
SO_C_20180719_A_0098.JPG,2018-07-19 15:04:02,58.49815833,-135.97106111,217,Abundance,0,0,0,0,Good,LFT,2018-09-25,SO-2017.1,0
SO_C_20180719_A_0099.JPG,2018-07-19 15:04:03,58.49815000,-135.97187778,217,Abundance,0,0,1,0,Good,LFT,2018-09-25,SO-2017.1,0
SO_C_20180719_A_0100.JPG,2018-07-19 15:04:04,58.49814167,-135.97269722,217,Abundance,0,0,1,0,Good,LFT,2018-09-25,SO-2017.1,0
SO_C_20180719_A_0101.JPG,2018-07-19 15:04:05,58.49813056,-135.97351667,217,Abundance,0,0,1,0,Good,LFT,2018-09-25,SO-2017.1,0
SO_C_20180719_A_0102.JPG,2018-07-19 15:04:06,58.49811389,-135.97433889,217,Abundance,0,0,1,0,Good,LFT,2018-09-25,SO-2017.1,0
SO_C_20180719_A_0103.JPG,2018-07-19 15:04:07,58.49809722,-135.97515833,217,Abundance,0,0,0,0,Good,LFT,2018-09-25,SO-2017.1,0
SO_C_20180719_A_0104.JPG,2018-07-19 15:04:08,58.49808056,-135.97598056,217,Abundance,0,0,0,0,Good,LFT,2018-09-25,SO-2017.1,0
SO_C_20180719_A_0105.JPG,2018-07-19 15:04:09,58.49806667,-135.97680278,217,Abundance,0,0,0,0,Good,LFT,2018-09-25,SO-2017.1,0
SO_C_20180719_A_0106.JPG,2018-07-19 15:04:10,58.49805278,-135.97763056,217,Abundance,0,0,1,0,Good,LFT,2018-09-25,SO-2017.1,0
SO_C_20180719_A_0107.JPG,2018-07-19 15:04:11,58.49803889,-135.97845556,217,Abundance,0,0,0,0,Good,LFT,2018-09-25,SO-2017.1,0
SO_C_20180719_A_0108.JPG,2018-07-19 15:04:12,58.49802222,-135.97928056,217,Abundance,0,0,0,0,Good,LFT,2018-09-25,SO-2017.1,0
SO_C_20180719_A_0109.JPG,2018-07-19 15:04:13,58.49800278,-135.98010556,217,Abundance,0,0,0,0,Good,LFT,2018-09-25,SO-2017.1,0
SO_C_20180719_A_0110.JPG,2018-07-19 15:04:14,58.49798611,-135.98093333,217,Abundance,0,0,1,0,Good,LFT,2018-09-25,SO-2017.1,0
SO_C_20180719_A_0111.JPG,2018-07-19 15:04:15,58.49796389,-135.98176111,217,Abundance,0,0,1,0,Good,LFT,2018-09-25,SO-2017.1,0
SO_C_20180719_A_0112.JPG,2018-07-19 15:04:16,58.49794167,-135.98258889,217,Abundance,0,0,0,0,Good,LFT,2018-09-25,SO-2017.1,0
SO_C_20180719_A_0113.JPG,2018-07-19 15:04:17,58.49791944,-135.98341667,218,Abundance,0,0,1,0,Good,LFT,2018-09-25,SO-2017.1,0
SO_C_20180719_A_0114.JPG,2018-07-19 15:04:18,58.49789444,-135.98424444,218,Abundance,0,0,1,0,Good,LFT,2018-09-25,SO-2017.1,0
SO_C_20180719_A_0115.JPG,2018-07-19 15:04:19,58.49786944,-135.98506944,218,Abundance,0,0,1,0,Good,LFT,2018-09-25,SO-2017.1,0
SO_C_20180719_A_0116.JPG,2018-07-19 15:04:20,58.49784444,-135.98589444,218,Abundance,0,0,1,0,Good,LFT,2018-09-25,SO-2017.1,0
SO_C_20180719_A_0117.JPG,2018-07-19 15:04:21,58.49782500,-135.98672500,218,Abundance,0,0,1,0,Good,LFT,2018-09-25,SO-2017.1,0
SO_C_20180719_A_0118.JPG,2018-07-19 15:04:22,58.49781111,-135.98755278,218,Abundance,0,0,0,0,Good,LFT,2018-09-25,SO-2017.1,0
SO_C_20180719_A_0119.JPG,2018-07-19 15:04:23,58.49780000,-135.98838333,218,Abundance,0,0,0,0,Good,LFT,2018-09-25,SO-2017.1,0
SO_C_20180719_A_0120.JPG,2018-07-19 15:04:24,58.49778889,-135.98921667,218,Abundance,0,0,0,0,Good,LFT,2018-09-25,SO-2017.1,0
SO_C_20180719_A_0121.JPG,2018-07-19 15:04:25,58.49778333,-135.99005278,218,Abundance,0,0,1,0,Good,LFT,2018-09-25,SO-2017.1,0
SO_C_20180719_A_0122.JPG,2018-07-19 15:04:26,58.49777778,-135.99089167,218,Abundance,0,0,0,0,Good,LFT,2018-09-25,SO-2017.1,0
SO_C_20180719_A_0123.JPG,2018-07-19 15:04:27,58.49777222,-135.99173333,218,Abundance,0,0,0,0,Good,LFT,2018-09-25,SO-2017.1,0
SO_C_20180719_A_0124.JPG,2018-07-19 15:04:28,58.49776667,-135.99258056,217,Abundance,0,0,0,0,Good,LFT,2018-09-25,SO-2017.1,0
SO_C_20180719_A_0125.JPG,2018-07-19 15:04:29,58.49776111,-135.99343056,217,Abundance,0,0,1,0,Good,LFT,2018-09-25,SO-2017.1,0
SO_C_20180719_A_0126.JPG,2018-07-19 15:04:30,58.49775278,-135.99428333,217,Abundance,0,0,0,0,Good,LFT,2018-09-25,SO-2017.1,0
SO_C_20180719_A_0127.JPG,2018-07-19 15:04:31,58.49774444,-135.99513889,216,Abundance,0,0,0,0,Good,LFT,2018-09-25,SO-2017.1,0
SO_C_20180719_A_0128.JPG,2018-07-19 15:04:32,58.49773333,-135.99599722,216,Abundance,0,0,0,0,Good,LFT,2018-09-25,SO-2017.1,0
SO_C_20180719_A_0129.JPG,2018-07-19 15:04:33,58.49772222,-135.99685833,215,Abundance,0,0,0,0,Good,LFT,2018-09-25,SO-2017.1,0
SO_C_20180719_A_0130.JPG,2018-07-19 15:04:34,58.49771111,-135.99771389,214,Abundance,0,0,1,0,Good,LFT,2018-09-25,SO-2017.1,0
SO_C_20180719_A_0131.JPG,2018-07-19 15:04:35,58.49770000,-135.99856667,212,Abundance,0,0,1,0,Good,LFT,2018-09-25,SO-2017.1,0
SO_C_20180719_A_0132.JPG,2018-07-19 15:04:36,58.49769167,-135.99941667,211,Abundance,0,0,1,0,Good,LFT,2018-09-25,SO-2017.1,0
SO_C_20180719_A_0133.JPG,2018-07-19 15:04:37,58.49768333,-136.00026111,210,Abundance,0,0,1,0,Good,LFT,2018-09-25,SO-2017.1,0
SO_C_20180719_A_0134.JPG,2018-07-19 15:04:38,58.49767778,-136.00110278,210,Abundance,0,0,1,0,Good,LFT,2018-09-25,SO-2017.1,0
SO_C_20180719_A_0135.JPG,2018-07-19 15:04:39,58.49767222,-136.00193889,209,Abundance,0,0,1,0,Good,LFT,2018-09-25,SO-2017.1,0
SO_C_20180719_A_0136.JPG,2018-07-19 15:04:40,58.49766944,-136.00277222,209,Abundance,0,0,1,0,Good,LFT,2018-09-25,SO-2017.1,0
SO_C_20180719_A_0137.JPG,2018-07-19 15:04:41,58.49766944,-136.00360278,209,Abundance,0,0,1,0,Good,LFT,2018-09-25,SO-2017.1,0
SO_C_20180719_A_0138.JPG,2018-07-19 15:04:42,58.49767222,-136.00442778,210,Abundance,0,0,1,0,Good,LFT,2018-09-25,SO-2017.1,0
SO_C_20180719_A_0139.JPG,2018-07-19 15:04:43,58.49767500,-136.00525556,211,Abundance,0,0,1,0,Good,LFT,2018-09-25,SO-2017.1,0
SO_C_20180719_A_0140.JPG,2018-07-19 15:04:44,58.49768333,-136.00608333,211,Abundance,0,0,0,0,Good,LFT,2018-09-25,SO-2017.1,0
SO_C_20180719_A_0141.JPG,2018-07-19 15:04:45,58.49769444,-136.00691111,212,Abundance,0,0,1,0,Good,LFT,2018-09-25,SO-2017.1,0
SO_C_20180719_A_0142.JPG,2018-07-19 15:04:46,58.49770278,-136.00773889,213,Abundance,0,0,1,0,Good,LFT,2018-09-25,SO-2017.1,0
SO_C_20180719_A_0143.JPG,2018-07-19 15:04:47,58.49771389,-136.00857222,213,Abundance,0,0,1,0,Good,LFT,2018-09-25,SO-2017.1,0
SO_C_20180719_A_0144.JPG,2018-07-19 15:04:48,58.49772500,-136.00941111,214,Abundance,0,0,1,0,Good,LFT,2018-09-25,SO-2017.1,0
SO_C_20180719_A_0145.JPG,2018-07-19 15:04:49,58.49773611,-136.01025000,214,Abundance,0,0,1,0,Good,LFT,2018-09-25,SO-2017.1,0
SO_C_20180719_A_0146.JPG,2018-07-19 15:04:50,58.49774444,-136.01109444,214,Abundance,0,0,1,0,Good,LFT,2018-09-25,SO-2017.1,0
SO_C_20180719_A_0147.JPG,2018-07-19 15:04:51,58.49775556,-136.01193611,214,Abundance,0,0,0,0,Good,LFT,2018-09-25,SO-2017.1,0
SO_C_20180719_A_0148.JPG,2018-07-19 15:04:52,58.49776944,-136.01278056,213,Abundance,0,0,1,0,Good,LFT,2018-09-25,SO-2017.1,0
SO_C_20180719_A_0149.JPG,2018-07-19 15:04:53,58.49778056,-136.01362500,213,Abundance,0,0,1,0,Good,LFT,2018-09-25,SO-2017.1,0
SO_C_20180719_A_0150.JPG,2018-07-19 15:04:54,58.49779167,-136.01446944,213,Abundance,0,0,1,0,Good,LFT,2018-09-25,SO-2017.1,0
SO_C_20180719_A_0151.JPG,2018-07-19 15:04:55,58.49780000,-136.01531111,212,Abundance,0,0,1,0,Good,LFT,2018-09-25,SO-2017.1,0
SO_C_20180719_A_0152.JPG,2018-07-19 15:04:56,58.49781111,-136.01615000,211,Abundance,1,0,1,0,Good,LFT,2018-09-25,SO-2017.1,0
SO_C_20180719_A_0153.JPG,2018-07-19 15:04:57,58.49782222,-136.01698889,211,Abundance,0,0,1,0,Good,LFT,2018-09-25,SO-2017.1,0
SO_C_20180719_A_0154.JPG,2018-07-19 15:04:58,58.49783333,-136.01782222,211,Abundance,0,0,1,0,Good,LFT,2018-09-25,SO-2017.1,0
SO_C_20180719_A_0155.JPG,2018-07-19 15:04:59,58.49784722,-136.01865556,211,Abundance,0,0,1,0,Good,LFT,2018-09-25,SO-2017.1,0
SO_C_20180719_A_0156.JPG,2018-07-19 15:05:00,58.49786111,-136.01948611,211,Abundance,0,0,0,0,Good,LFT,2018-09-25,SO-2017.1,0
SO_C_20180719_A_0157.JPG,2018-07-19 15:05:01,58.49787500,-136.02031667,211,Abundance,0,0,0,0,Good,LFT,2018-09-25,SO-2017.1,0
SO_C_20180719_A_0158.JPG,2018-07-19 15:05:02,58.49788611,-136.02114444,211,Abundance,0,0,0,0,Good,LFT,2018-09-25,SO-2017.1,0
SO_C_20180719_A_0159.JPG,2018-07-19 15:05:03,58.49789722,-136.02197222,211,Abundance,0,0,1,0,Good,LFT,2018-09-25,SO-2017.1,0
SO_C_20180719_A_0160.JPG,2018-07-19 15:05:04,58.49790556,-136.02280000,212,Abundance,0,0,0,0,Good,LFT,2018-09-25,SO-2017.1,0
SO_C_20180719_A_0161.JPG,2018-07-19 15:05:05,58.49791944,-136.02362222,212,Abundance,0,0,0,0,Good,LFT,2018-09-25,SO-2017.1,0
SO_C_20180719_A_0162.JPG,2018-07-19 15:05:06,58.49793056,-136.02444722,212,Abundance,0,0,0,0,Good,LFT,2018-09-25,SO-2017.1,0
SO_C_20180719_A_0163.JPG,2018-07-19 15:07:39,58.50225278,-135.97785000,212,Abundance,0,0,1,0,Good,LFT,2018-09-25,SO-2017.1,0
SO_C_20180719_A_0164.JPG,2018-07-19 15:07:40,58.50218333,-135.97704722,212,Abundance,0,0,1,0,Good,LFT,2018-09-25,SO-2017.1,0
SO_C_20180719_A_0165.JPG,2018-07-19 15:07:41,58.50211944,-135.97624444,212,Abundance,0,0,1,0,Good,LFT,2018-09-25,SO-2017.1,0
SO_C_20180719_A_0166.JPG,2018-07-19 15:07:42,58.50205833,-135.97543889,211,Abundance,0,0,1,0,Good,LFT,2018-09-25,SO-2017.1,0
SO_C_20180719_A_0167.JPG,2018-07-19 15:07:43,58.50200556,-135.97462778,211,Abundance,0,0,1,0,Good,LFT,2018-09-25,SO-2017.1,0
SO_C_20180719_A_0168.JPG,2018-07-19 15:07:44,58.50196111,-135.97381389,211,Abundance,0,0,1,0,Good,LFT,2018-09-25,SO-2017.1,0
SO_C_20180719_A_0169.JPG,2018-07-19 15:07:45,58.50192778,-135.97299444,210,Abundance,0,0,1,0,Good,LFT,2018-09-25,SO-2017.1,0
SO_C_20180719_A_0170.JPG,2018-07-19 15:07:46,58.50190556,-135.97217222,210,Abundance,0,0,1,0,Good,LFT,2018-09-25,SO-2017.1,0
SO_C_20180719_A_0171.JPG,2018-07-19 15:07:47,58.50189444,-135.97134722,209,Abundance,0,0,1,0,Good,LFT,2018-09-25,SO-2017.1,0
SO_C_20180719_A_0172.JPG,2018-07-19 15:07:48,58.50188889,-135.97051944,209,Abundance,0,0,1,0,Good,LFT,2018-09-25,SO-2017.1,0
SO_C_20180719_A_0173.JPG,2018-07-19 15:07:49,58.50188889,-135.96969167,209,Abundance,0,0,0,0,Good,LFT,2018-09-25,SO-2017.1,0
SO_C_20180719_A_0174.JPG,2018-07-19 15:07:50,58.50189167,-135.96886111,208,Abundance,0,0,0,0,Good,LFT,2018-09-25,SO-2017.1,0
SO_C_20180719_A_0175.JPG,2018-07-19 15:07:51,58.50190000,-135.96803056,208,Abundance,0,0,0,0,Good,LFT,2018-09-25,SO-2017.1,0
SO_C_20180719_A_0176.JPG,2018-07-19 15:07:52,58.50191389,-135.96720556,207,Abundance,0,0,0,0,Good,LFT,2018-09-25,SO-2017.1,0
SO_C_20180719_A_0177.JPG,2018-07-19 15:07:53,58.50193056,-135.96638333,207,Abundance,0,0,0,0,Good,LFT,2018-09-25,SO-2017.1,0
SO_C_20180719_A_0178.JPG,2018-07-19 15:07:54,58.50195556,-135.96556111,207,Abundance,0,0,1,0,Good,LFT,2018-09-25,SO-2017.1,0
SO_C_20180719_A_0179.JPG,2018-07-19 15:07:55,58.50198333,-135.96474444,207,Abundance,0,0,1,0,Good,LFT,2018-09-25,SO-2017.1,0
SO_C_20180719_A_0180.JPG,2018-07-19 15:07:56,58.50201389,-135.96392778,208,Abundance,0,0,1,0,Good,LFT,2018-09-25,SO-2017.1,0
SO_C_20180719_A_0181.JPG,2018-07-19 15:07:57,58.50204722,-135.96311111,208,Abundance,0,0,1,0,Good,LFT,2018-09-25,SO-2017.1,0
SO_C_20180719_A_0182.JPG,2018-07-19 15:07:58,58.50207500,-135.96229167,209,Abundance,0,0,1,0,Good,LFT,2018-09-25,SO-2017.1,0
SO_C_20180719_A_0183.JPG,2018-07-19 15:07:59,58.50210278,-135.96147500,209,Abundance,0,0,1,0,Good,LFT,2018-09-25,SO-2017.1,0
SO_C_20180719_A_0184.JPG,2018-07-19 15:08:00,58.50212500,-135.96065000,210,Abundance,0,0,1,0,Good,LFT,2018-09-25,SO-2017.1,0
SO_C_20180719_A_0185.JPG,2018-07-19 15:08:01,58.50214167,-135.95982222,211,Abundance,0,0,1,1,Good,LFT,2018-09-25,SO-2017.1,0
SO_C_20180719_A_0186.JPG,2018-07-19 15:08:02,58.50215556,-135.95898889,211,Abundance,0,0,0,1,Good,LFT,2018-09-25,SO-2017.1,0
SO_C_20180719_A_0187.JPG,2018-07-19 15:08:03,58.50216389,-135.95815000,212,Abundance,0,0,0,1,Good,LFT,2018-09-25,SO-2017.1,0
SO_C_20180719_A_0188.JPG,2018-07-19 15:08:04,58.50216667,-135.95730556,213,Abundance,0,0,0,1,Good,LFT,2018-09-25,SO-2017.1,0
SO_C_20180719_A_0189.JPG,2018-07-19 15:08:05,58.50216667,-135.95646111,213,Abundance,0,0,0,1,Good,LFT,2018-09-25,SO-2017.1,0
SO_C_20180719_A_0190.JPG,2018-07-19 15:08:06,58.50215833,-135.95561667,213,Abundance,0,0,0,1,Good,LFT,2018-09-25,SO-2017.1,0
SO_C_20180719_A_0191.JPG,2018-07-19 15:08:07,58.50215000,-135.95476944,213,Abundance,0,0,0,1,Good,LFT,2018-09-25,SO-2017.1,0
SO_C_20180719_A_0192.JPG,2018-07-19 15:08:08,58.50213611,-135.95392222,212,Abundance,0,0,0,1,Good,LFT,2018-09-25,SO-2017.1,0
SO_C_20180719_A_0193.JPG,2018-07-19 15:08:09,58.50211944,-135.95307778,212,Abundance,0,0,1,1,Good,LFT,2018-09-25,SO-2017.1,0
SO_C_20180719_A_0194.JPG,2018-07-19 15:08:10,58.50210000,-135.95223611,211,Abundance,0,0,1,1,Good,LFT,2018-09-25,SO-2017.1,0
SO_C_20180719_A_0195.JPG,2018-07-19 15:08:11,58.50207500,-135.95140278,210,Abundance,0,0,1,0,Good,LFT,2018-09-25,SO-2017.1,0
SO_C_20180719_A_0196.JPG,2018-07-19 15:08:12,58.50204167,-135.95057500,209,Abundance,0,0,1,0,Good,LFT,2018-09-25,SO-2017.1,0
SO_C_20180719_A_0197.JPG,2018-07-19 15:08:13,58.50200278,-135.94974722,209,Abundance,0,0,1,1,Good,LFT,2018-09-25,SO-2017.1,0
SO_C_20180719_A_0198.JPG,2018-07-19 15:08:14,58.50196389,-135.94892500,209,Abundance,0,0,1,1,Good,LFT,2018-09-25,SO-2017.1,0
SO_C_20180719_A_0199.JPG,2018-07-19 15:08:15,58.50192778,-135.94810556,209,Abundance,0,0,1,1,Good,LFT,2018-09-25,SO-2017.1,0
SO_C_20180719_A_0200.JPG,2018-07-19 15:08:16,58.50189722,-135.94728889,209,Abundance,0,0,1,0,Good,LFT,2018-09-25,SO-2017.1,0
SO_C_20180719_A_0201.JPG,2018-07-19 15:08:17,58.50187500,-135.94647500,209,Abundance,0,0,0,0,Good,LFT,2018-09-25,SO-2017.1,0
SO_C_20180719_A_0202.JPG,2018-07-19 15:08:18,58.50185833,-135.94566389,209,Abundance,0,0,0,0,Good,LFT,2018-09-25,SO-2017.1,0
SO_C_20180719_A_0203.JPG,2018-07-19 15:08:19,58.50185000,-135.94485278,210,Abundance,0,0,0,0,Good,LFT,2018-09-25,SO-2017.1,0
SO_C_20180719_A_0204.JPG,2018-07-19 15:08:20,58.50184722,-135.94404167,210,Abundance,0,0,1,0,Good,LFT,2018-09-25,SO-2017.1,0
SO_C_20180719_A_0205.JPG,2018-07-19 15:08:21,58.50185000,-135.94323333,211,Abundance,0,0,0,0,Good,LFT,2018-09-25,SO-2017.1,0
SO_C_20180719_A_0206.JPG,2018-07-19 15:08:22,58.50185556,-135.94242500,211,Abundance,0,0,0,0,Good,LFT,2018-09-25,SO-2017.1,0
SO_C_20180719_A_0207.JPG,2018-07-19 15:08:23,58.50186944,-135.94161389,212,Abundance,0,0,1,0,Good,LFT,2018-09-25,SO-2017.1,0
SO_C_20180719_A_0208.JPG,2018-07-19 15:08:24,58.50189167,-135.94079722,213,Abundance,0,0,1,0,Good,LFT,2018-09-25,SO-2017.1,0